Stations météo

réclame
Mon MeteoGroup
Oostende Airport, Belgique (6407): Température de l'air & dewpoint: 14.07.2018 22:00:00 - 20.07.2018 22:00:00 (CEST)Oostende Airport, Belgique (6407): Vitesse du vent & gusts: 14.07.2018 22:00:00 - 20.07.2018 22:00:00 (CEST)Oostende Airport, Belgique (6407): Direction du vent: 14.07.2018 22:00:00 - 20.07.2018 22:00:00 (CEST)Oostende Airport, Belgique (6407): reduced air pressure: 14.07.2018 22:00:00 - 20.07.2018 22:00:00 (CEST)Oostende Airport, Belgique (6407): visibility: 14.07.2018 22:00:00 - 20.07.2018 22:00:00 (CEST)
Date & Time tt [°C] td [°C] ff [km/h] ff [knt] fx [km/h] fx [knt] dd ppp [hPa] vv [km]
20.07.2018 22:00:00 18,9 13,5 16 9 22 12 NE 1013,4 10
20.07.2018 21:00:00 19,6 11,7 13 7 18 10 NE 1013,5 10
20.07.2018 20:00:00 20,2 10,2 11 6 - - NE 1013,8 10
20.07.2018 19:00:00 20,5 10,0 9 5 18 10 NNE 1014,0 10
20.07.2018 18:00:00 20,2 11,6 13 7 18 10 N 1014,3 10
20.07.2018 17:00:00 20,1 12,4 9 5 - - N 1015,1 10
20.07.2018 16:00:00 20,7 12,0 9 5 18 10 N 1015,6 10
20.07.2018 15:00:00 20,8 12,7 13 7 18 10 N 1015,7 10
20.07.2018 14:00:00 21,6 12,1 13 7 - - N 1015,8 10
20.07.2018 13:00:00 21,8 10,9 16 9 22 12 N 1015,9 10
20.07.2018 12:00:00 21,9 12,3 15 8 18 10 N 1015,8 10
20.07.2018 11:00:00 21,9 12,6 13 7 - - N 1015,8 10
20.07.2018 10:00:00 21,2 12,9 5 3 11 6 - 1016,0 10
20.07.2018 09:00:00 19,7 14,3 5 3 7 4 E 1016,1 9
20.07.2018 08:00:00 17,5 14,0 4 2 - - - 1016,1 9
20.07.2018 07:00:00 13,6 11,6 5 3 11 6 S 1016,4 6
20.07.2018 06:00:00 13,0 11,2 8 4 18 10 SE 1016,3 10
20.07.2018 05:00:00 13,9 11,9 8 4 - - E 1016,6 10
20.07.2018 04:00:00 15,5 12,5 13 7 18 10 ENE 1016,7 10
20.07.2018 03:00:00 15,3 12,2 11 6 14 8 ENE 1017,1 10
20.07.2018 02:00:00 15,9 12,4 9 5 - - ENE 1017,5 10
20.07.2018 01:00:00 16,8 12,4 9 5 18 10 ENE 1018,1 10
20.07.2018 00:00:00 17,8 13,2 15 8 22 12 NE 1018,0 10
19.07.2018 23:00:00 18,1 13,2 15 8 - - NE 1018,1 10
19.07.2018 22:00:00 18,7 12,3 21 11 25 14 NE 1018,4 10
19.07.2018 21:00:00 19,8 12,4 21 11 25 14 NE 1018,7 10
19.07.2018 20:00:00 20,7 12,3 21 11 - - NNE 1018,7 10
19.07.2018 19:00:00 22,2 11,2 22 12 32 18 NNE 1018,8 10
19.07.2018 18:00:00 21,7 11,1 24 13 32 18 NNE 1019,0 10
19.07.2018 17:00:00 22,7 9,7 22 12 - - NNE 1019,6 10
19.07.2018 16:00:00 23,0 10,8 22 12 29 16 NNE 1019,8 10
19.07.2018 15:00:00 22,8 10,7 18 10 29 16 NNE 1020,0 10
19.07.2018 14:00:00 23,2 9,6 16 9 - - NNE 1020,0 10
19.07.2018 13:00:00 22,4 10,8 18 10 25 14 NNE 1020,2 25
19.07.2018 12:00:00 21,9 13,1 18 10 25 14 NNE 1020,2 10
19.07.2018 11:00:00 22,0 12,8 16 9 - - NNE 1020,0 10
19.07.2018 10:00:00 21,2 11,6 13 7 18 10 NNE 1020,0 10
19.07.2018 09:00:00 19,2 14,4 4 2 7 4 - 1020,0 10
19.07.2018 08:00:00 14,7 12,1 2 1 - - - 1020,2 7
19.07.2018 07:00:00 11,4 10,1 2 1 4 2 ESE 1019,7 10
19.07.2018 06:00:00 11,4 10,0 4 2 7 4 SE 1019,8 8
19.07.2018 05:00:00 12,8 11,2 5 3 - - NE 1019,8 8
19.07.2018 04:00:00 12,4 10,8 0 0 4 2 N 1020,0 8
19.07.2018 03:00:00 12,7 11,2 0 0 4 2 N 1020,2 10
19.07.2018 02:00:00 14,3 12,5 4 2 - - E 1020,1 10
19.07.2018 01:00:00 16,9 13,7 11 6 18 10 NNE 1020,0 10
19.07.2018 00:00:00 16,9 12,7 8 4 14 8 NNE 1020,0 10
18.07.2018 23:00:00 17,4 13,5 9 5 - - NE 1019,8 10
18.07.2018 22:00:00 18,0 13,9 11 6 18 10 NNE 1019,7 10
18.07.2018 21:00:00 19,3 14,3 13 7 18 10 NNE 1019,7 10
18.07.2018 20:00:00 20,2 14,6 13 7 - - N 1019,7 10
18.07.2018 19:00:00 20,6 13,6 15 8 22 12 NNW 1019,7 10
18.07.2018 18:00:00 20,7 13,9 15 8 22 12 NNW 1019,8 10
18.07.2018 17:00:00 20,0 14,2 16 9 - - NNW 1019,9 10
18.07.2018 16:00:00 20,8 14,1 16 9 22 12 NW 1019,8 10
18.07.2018 15:00:00 21,0 13,5 16 9 25 14 WNW 1019,9 10
18.07.2018 14:00:00 21,4 13,3 15 8 - - NW 1019,9 10
18.07.2018 13:00:00 21,0 13,6 15 8 22 12 WNW 1020,0 10
18.07.2018 12:00:00 19,8 14,4 18 10 25 14 W 1019,9 10
18.07.2018 11:00:00 19,9 14,8 18 10 - - W 1019,8 10
18.07.2018 10:00:00 19,1 15,3 18 10 25 14 W 1019,8 10
18.07.2018 09:00:00 16,6 13,3 9 5 14 8 SW 1019,6 10
18.07.2018 08:00:00 13,7 11,3 9 5 - - SSW 1019,2 10
18.07.2018 07:00:00 11,9 9,9 9 5 11 6 SSW 1018,8 10
18.07.2018 06:00:00 10,5 8,7 9 5 11 6 S 1018,6 10
18.07.2018 05:00:00 10,5 8,6 8 4 - - SSW 1018,6 10
18.07.2018 04:00:00 10,3 7,9 9 5 14 8 SSW 1018,7 10
18.07.2018 03:00:00 11,6 9,2 11 6 14 8 S 1018,8 10
18.07.2018 02:00:00 11,9 9,0 9 5 - - SSW 1018,8 10
18.07.2018 01:00:00 12,7 9,3 9 5 11 6 SSW 1018,7 10
18.07.2018 00:00:00 13,5 9,4 5 3 14 8 SSW 1018,6 10
17.07.2018 23:00:00 14,2 9,3 11 6 - - SSW 1018,5 10
17.07.2018 22:00:00 17,9 11,5 21 11 32 18 WSW 1018,3 10
17.07.2018 21:00:00 19,0 12,2 24 13 40 21 W 1018,2 10
17.07.2018 20:00:00 19,8 12,0 29 16 - - W 1017,8 10
17.07.2018 19:00:00 20,3 12,6 31 17 40 21 W 1017,8 10
17.07.2018 18:00:00 20,6 13,5 29 16 40 21 W 1017,9 10
17.07.2018 17:00:00 20,7 13,3 28 15 - - W 1017,9 10
17.07.2018 16:00:00 21,5 12,1 24 13 36 19 W 1018,0 10
17.07.2018 15:00:00 21,2 11,6 28 15 36 19 W 1017,9 10
17.07.2018 14:00:00 20,2 12,6 24 13 - - W 1017,7 10
17.07.2018 13:00:00 19,8 12,4 29 16 43 23 W 1017,6 10
17.07.2018 12:00:00 19,6 11,6 35 19 50 27 W 1016,8 10
17.07.2018 11:00:00 20,2 13,3 31 17 - - W 1016,3 10
17.07.2018 10:00:00 19,8 13,8 29 16 43 23 W 1015,8 10
17.07.2018 09:00:00 19,5 13,5 21 11 32 18 WSW 1015,3 10
17.07.2018 08:00:00 17,0 14,4 15 8 - - WSW 1015,0 8
17.07.2018 07:00:00 14,6 12,8 11 6 14 8 SSW 1014,6 4,0
17.07.2018 06:00:00 14,0 12,0 9 5 - - SSW - 10
17.07.2018 05:00:00 13,2 10,3 11 6 - - SSW 1014,2 10
17.07.2018 04:00:00 13,5 10,1 11 6 14 8 SSW 1014,2 10
17.07.2018 03:00:00 14,4 9,7 11 6 18 10 SSW 1014,4 10
17.07.2018 02:00:00 14,5 9,8 11 6 - - SSW 1014,4 10
17.07.2018 01:00:00 17,0 10,5 11 6 18 10 SW 1014,5 10
17.07.2018 00:00:00 18,5 10,2 15 8 22 12 WSW 1014,4 10
16.07.2018 23:00:00 17,4 13,0 11 6 - - SW 1014,3 10
16.07.2018 22:00:00 18,5 13,0 11 6 14 8 W 1014,1 10
16.07.2018 21:00:00 21,0 13,8 11 6 22 12 W 1013,8 10
16.07.2018 20:00:00 21,7 15,8 11 6 - - WNW 1013,4 10
16.07.2018 19:00:00 24,0 10,1 13 7 18 10 WNW 1013,2 10
16.07.2018 18:00:00 23,9 12,4 13 7 22 12 NNW 1013,2 10
16.07.2018 17:00:00 22,8 14,1 16 9 - - NW 1013,5 10
16.07.2018 16:00:00 24,3 13,7 15 8 18 10 NW 1013,6 10
16.07.2018 15:00:00 25,3 12,0 15 8 22 12 NW 1013,6 10
16.07.2018 14:00:00 24,5 14,9 16 9 - - NW 1013,9 10
16.07.2018 13:00:00 25,5 11,9 15 8 18 10 N 1014,0 10
16.07.2018 12:00:00 25,2 12,8 11 6 14 8 NNW 1014,1 10
16.07.2018 11:00:00 25,2 14,6 8 4 - - NNW 1014,1 10
16.07.2018 10:00:00 23,5 14,2 4 2 7 4 - 1014,1 10
16.07.2018 09:00:00 22,2 14,2 4 2 7 4 - 1014,1 10
16.07.2018 08:00:00 18,0 14,9 5 3 - - E 1014,1 10
16.07.2018 07:00:00 18,3 14,8 7 4 14 8 NNW 1014,2 30
16.07.2018 06:00:00 17,0 13,6 9 5 14 8 NW 1014,2 10
16.07.2018 05:00:00 13,9 11,0 8 4 - - W 1014,4 10
16.07.2018 04:00:00 15,2 11,6 2 1 4 2 WNW 1014,5 10
16.07.2018 03:00:00 16,3 12,4 4 2 4 2 E 1014,7 10
16.07.2018 02:00:00 17,2 13,2 4 2 - - E 1015,1 10
16.07.2018 01:00:00 18,6 12,7 8 4 11 6 E 1015,4 10
16.07.2018 00:00:00 18,6 12,2 8 4 11 6 E 1015,5 10
15.07.2018 23:00:00 20,0 13,1 8 4 - - E 1015,5 10
15.07.2018 22:00:00 22,2 13,7 9 5 18 10 ENE 1015,6 10
15.07.2018 21:00:00 23,5 13,5 13 7 22 12 NE 1015,4 10
15.07.2018 20:00:00 24,7 13,2 16 9 - - NE 1015,3 10
15.07.2018 19:00:00 25,5 12,6 16 9 25 14 NE 1015,5 10
15.07.2018 18:00:00 26,0 11,6 21 11 25 14 NNE 1015,8 10
15.07.2018 17:00:00 26,1 13,4 18 10 - - NNE 1016,4 30
15.07.2018 16:00:00 24,8 11,0 21 11 29 16 N 1016,6 10
15.07.2018 15:00:00 25,4 11,4 21 11 29 16 N 1016,8 10
15.07.2018 14:00:00 25,2 10,9 16 9 - - N 1017,2 10
15.07.2018 13:00:00 24,8 11,9 16 9 22 12 N 1017,6 10
15.07.2018 12:00:00 24,2 13,5 15 8 18 10 N 1017,8 10
15.07.2018 11:00:00 24,2 14,3 11 6 - - NNW 1017,9 10
15.07.2018 10:00:00 21,9 13,3 5 3 14 8 SE 1018,0 10
15.07.2018 09:00:00 19,4 13,7 9 5 14 8 ESE 1018,0 10
15.07.2018 08:00:00 17,0 13,2 8 4 - - ESE 1017,9 10
15.07.2018 07:00:00 15,2 12,1 9 5 11 6 E 1017,6 10
15.07.2018 06:00:00 13,8 11,2 11 6 11 6 E 1017,6 10
15.07.2018 05:00:00 13,9 11,6 9 5 - - E 1018,1 10
15.07.2018 04:00:00 14,4 11,9 9 5 11 6 E 1018,2 10
15.07.2018 03:00:00 14,5 12,2 8 4 11 6 E 1018,5 10
15.07.2018 02:00:00 15,0 12,3 8 4 - - E 1018,8 10
15.07.2018 01:00:00 15,9 12,9 8 4 14 8 E 1019,0 10
15.07.2018 00:00:00 17,1 13,6 9 5 18 10 ENE 1019,1 10
14.07.2018 23:00:00 17,9 14,0 13 7 - - ENE 1019,2 10
14.07.2018 22:00:00 18,7 13,9 16 9 29 16 NE 1019,2 10

tt = Température de l'air
td = dewpoint
ff = Vitesse du vent
fx = gusts
dd = Direction du vent
ppp = reduced air pressure
vv = visibility

stations d'obs. à proximité